Simultaneous Nadir Overpasses (SNOs) Predictions

Prediction of SNOs between TERRA and METOP-C Satellite Orbit:

Table of predicted SNOs for the next 14.0 days since TLE Epoch: 4/14/2023
Index Date (TERRA) Time (TERRA) Lat,Lon (TERRA) SZA (TERRA ) Date (METOP-C) Time (METOP-C) Lat,Lon (METOP-C) SZA (METOP-C ) Distance(km) Time Diff (sec)
1 04/16/2023 17:26:48 -80.87, 132.07 107.79 04/16/2023 17:26:20 -80.87, 132.05 107.81 0.63 28
2 04/16/2023 18:16:09 80.90, -59.88 72.26 04/16/2023 18:16:59 80.91, -59.85 72.29 0.60 50
3 04/19/2023 08:48:29 80.84, 81.27 71.25 04/19/2023 08:47:20 80.84, 81.25 71.22 0.61 69
4 04/19/2023 09:37:50 -80.89,-110.55 108.69 04/19/2023 09:37:58 -80.88,-110.58 108.69 0.65 8
5 04/22/2023 00:59:31 80.87,-161.25 70.39 04/22/2023 00:58:58 80.87,-161.07 70.40 3.12 33
6 04/22/2023 01:48:52 -80.91, 6.93 109.54 04/22/2023 01:49:36 -80.91, 7.08 109.51 2.71 44
7 04/24/2023 16:21:12 -80.83, 147.94 110.54 04/24/2023 16:19:58 -80.83, 148.03 110.56 1.50 74
8 04/24/2023 17:10:33 80.87, -44.01 69.52 04/24/2023 17:10:38 80.86, -44.18 69.50 3.24 5
9 04/27/2023 08:32:13 -80.84, -94.72 111.38 04/27/2023 08:31:37 -80.84, -94.81 111.40 1.74 36



Historial Predications of SNOs between TERRA and METOP-C
